En Direct

LFST 280630Z AUTO 01006KT 7000 DZ BKN009 OVC019 01/01 Q1025 TEMPO NSW BKN012


TAF LFST 280500Z 2806/2906 01008KT 9999 BKN030 PROB30 TEMPO 2806/2809 -SN BKN012 TEMPO 2820/2906 4000 BR BKN008

Nos Avions

7 avions disponibles et entretenus par un atelier agréé, permettant tous types de vols (formation, promenade, voyage…)

l'école de pilotage

PPL, LAPL, Vol de nuit, SEP… Toutes ces formations sont dispensées par nos instructeurs bénévoles.
Formation Théorique Mermoz via la FFA

Notre Plateforme

Nous sommes basés à l’aéroport de Strasbourg-Entzheim (LFST) en plein coeur de l’Alsace qui permet de voyager rapidement outre Rhin, mais également de profiter des paysages variés

Nos réseaux

Suivez-nous sur les réseaux sociaux